Lid_Strength_Index
5 2 -1 -1 -1 -1 -1 -1 -1 -1 -1 -1 -1 -1 -1 -1 -1 -1 -1 -1 -1 -1 -1 -1 -1 -1 -1 -1 -1 -1 -1 -1 -1 -1 -1 -1 -1 -1 -1 -1 -1 -0 -1
6 1 -0 -1 -1 -1 -1 -1 -1 -1 -1 -1 -1 -1 -1 -1 -1 -1 -1 -1 -1 -1 -2 -2 -2 -2 -2 -1 -1 -1 -1 -1 -1 -1 -2 -2 -2 -1 -1 -1 -1 -0 -1
6 2 1 -0 -1 -1 -1 -1 -1 -1 -1 -1 -1 -1 -1 -1 -1 -1 -1 -1 -2 -2 -2 -2 -2 -2 -2 -2 -2 -2 -1 -1 -1 -1 -1 0 1 -1 -1 -1 -1 -1 -1
5 2 1 -0 1 0 -1 -1 -1 -1 -1 -1 -1 -1 -1 -1 -1 -1 -1 -1 -1 -2 -2 -2 -1 -2 -2 -2 -1 -1 -1 -1 -1 -1 0 -0 -0 -1 -1 -1 -1 -1 -1
6 4 1 -1 0 1 1 0 -0 -1 -1 -1 -1 -1 -1 -1 -1 -1 -1 -2 -2 -2 -2 -2 -2 -1 -2 -2 -1 -1 -1 -1 -1 1 3 3 2 -1 -1 -1 -1 -1 -1
5 4 3 -1 -2 -0 1 1 1 1 -0 -1 -1 -1 -1 -1 -1 -1 -1 -2 -2 -2 -2 -2 -2 -2 -2 -1 -1 -1 -1 -1 -0 3 2 2 2 -1 -1 -1 -1 -1 -1
5 5 4 1 0 -0 -1 1 1 2 2 1 -0 -1 -1 -1 -1 -1 -1 -2 -2 -2 -2 -2 -2 -2 -2 -1 -1 -1 -1 -1 2 2 2 1 1 -1 -1 -1 -1 -1 -1
6 5 5 3 2 1 1 -0 -0 1 2 2 2 0 -1 -1 -1 -1 -1 -1 -2 -2 -2 -2 -2 -2 -1 -1 -1 -1 -1 -1 1 2 2 2 -1 -1 -1 -1 -1 -1 -1
7 6 6 5 4 3 2 1 0 -0 2 2 2 2 2 0 -1 -1 -1 -1 -1 -2 -2 -2 -2 -2 -1 -1 -1 -1 -1 -1 2 2 1 1 -1 -1 -1 -1 -1 -1 -1
8 7 7 6 6 5 4 2 1 1 0 2 2 2 2 2 0 -0 0 -1 -1 -2 -2 -2 -2 -2 -1 -1 -1 -1 -1 -1 2 2 2 1 -2 -1 -1 -1 -1 -1 -1
8 8 7 7 6 5 4 3 2 2 1 1 2 1 2 1 1 0 0 -0 -1 -1 -1 -1 -2 -2 -1 -1 -1 -1 -1 1 3 2 1 -1 -2 -1 -1 -1 -1 -1 -1
10 8 7 7 7 6 4 4 4 3 3 2 2 1 1 1 1 -0 1 1 -0 0 -1 -1 -1 -1 -0 1 0 -1 0 1 3 2 2 -1 -2 -1 -1 -1 -1 -1 -1
10 9 8 7 7 6 6 5 5 4 4 3 3 2 1 1 1 1 -0 0 -0 2 -0 -0 -0 0 1 2 2 1 1 1 3 3 1 -1 -2 -1 -1 -1 -1 -1 -1
10 9 8 8 7 6 6 5 5 4 4 4 4 3 3 2 2 2 0 0 -0 -0 1 0 1 1 1 2 3 3 1 3 3 2 2 0 -2 -2 -1 -1 -1 -1 -1
10 9 9 8 7 6 6 5 5 5 5 4 4 4 4 3 1 2 1 1 0 1 1 1 1 1 2 2 3 4 3 3 3 2 1 1 -1 -2 -1 -1 -2 -1 -1
9 10 9 7 7 6 6 6 5 5 5 5 5 5 4 3 3 3 1 1 1 1 1 1 1 2 2 2 2 3 4 3 2 1 -0 0 -0 -1 -1 -1 -1 -1 -1
10 9 9 8 6 7 6 5 5 5 5 4 4 5 5 4 3 2 2 0 0 0 1 1 1 2 2 2 3 3 4 3 1 1 1 1 1 0 -1 -1 -2 -2 -2
10 10 10 8 7 7 6 5 5 5 5 5 5 4 5 4 3 3 3 2 -0 -0 0 1 2 3 3 3 4 3 3 2 2 2 2 2 1 1 0 -1 -1 -2 -1
12 11 10 9 8 7 6 6 6 5 5 5 5 5 4 4 4 4 4 3 0 0 1 1 2 2 3 3 3 3 1 2 2 2 4 3 2 2 2 1 1 0 -1
12 11 11 9 8 7 7 6 5 5 5 4 4 4 4 4 4 4 4 4 0 1 1 1 2 2 3 3 3 4 3 3 3 3 3 3 4 4 4 4 3 3 0
12 11 10 10 7 7 7 7 6 6 5 4 3 3 3 3 4 4 4 3 0 1 1 1 2 3 4 4 5 5 6 5 5 4 3 4 5 5 5 5 5 5 4
12 12 10 9 7 7 6 7 6 5 4 4 3 3 3 3 4 4 3 1 1 2 2 1 2 3 3 3 5 6 7 7 7 6 5 5 5 4 5 6 6 6 6
12 12 11 10 8 7 7 6 6 4 3 4 3 3 3 2 3 3 3 1 1 1 2 1 2 3 4 3 3 5 7 8 8 7 7 7 5 5 5 7 7 7 7
12 12 11 10 7 7 7 7 7 5 5 3 2 2 2 3 2 2 1 1 0 0 1 1 1 2 3 4 4 4 5 6 8 10 8 7 7 7 7 7 8 9 9
12 12 12 9 8 7 7 7 7 5 4 2 1 2 3 2 1 0 0 1 1 1 1 1 1 2 2 3 4 5 6 6 7 8 10 10 9 9 8 9 10 11 11
12 12 12 9 9 8 7 7 7 6 6 4 3 2 2 1 2 0 1 1 1 1 1 1 1 2 3 3 4 5 5 7 8 8 9 10 11 11 10 10 12 12 12